This is the latest recevied weather packets stored in our database for station/object VA2EYZ-13. If no packets are shown the sender has not sent any weather packets the latest 10 day(s).
| Time | Temp. | Humidity | Pressure | Rain* | Wind** | Luminosity | Snow |
|---|---|---|---|---|---|---|---|
| 1788161636 | 11.67° C | 97% | 1020 hPa | - | - | - | - |
| 1788161086 | 11.67° C | 97% | 1020 hPa | - | - | - | - |
| 1788159816 | 12.22° C | 97% | 1019.9 hPa | - | - | - | - |
| 1788154666 | 13.33° C | 97% | 1020 hPa | - | - | - | - |
| 1788153704 | 13.33° C | 97% | 1020 hPa | - | - | - | - |
| 1788147478 | 13.89° C | 95% | 1019 hPa | - | - | - | - |
| 1788146736 | 13.89° C | 95% | 1019 hPa | - | - | - | - |
| 1788145176 | 15° C | 94% | 1019 hPa | - | - | - | - |
| 1788143749 | 15° C | 94% | 1019 hPa | - | - | - | - |
| 1788138923 | 16.11° C | 90% | 1018.2 hPa | - | - | - | - |
| 1788138316 | 16.11° C | 90% | 1018.2 hPa | - | - | - | - |
| 1788137059 | 16.11° C | 92% | 1018 hPa | - | - | - | - |
| 1788135603 | 16.11° C | 92% | 1017 hPa | - | - | - | - |
| 1788132759 | 17.78° C | 86% | 1016 hPa | - | - | - | - |
| 1788129743 | 19.44° C | 84% | 1016 hPa | - | - | - | - |
| 1788129220 | 19.44° C | 90% | 1016 hPa | - | - | - | - |
| 1788127651 | 18.89° C | 88% | 1015 hPa | - | - | - | - |
| 1788125204 | 21.67° C | 78% | 1015.3 hPa | - | - | - | - |
| 1788123852 | 21.67° C | 78% | 1015 hPa | - | - | - | - |
| 1788122807 | 22.78° C | 76% | 1014.9 hPa | - | - | - | - |
| 1788121998 | 23.33° C | 70% | 1014.9 hPa | - | - | - | - |
| 1788121677 | 23.33° C | 69% | 1014 hPa | - | - | - | - |
| 1788121306 | 23.33° C | 69% | 1014 hPa | - | - | - | - |
| 1788120968 | 23.89° C | 68% | 1014 hPa | - | - | - | - |
| 1788119804 | 23.89° C | 67% | 1014 hPa | - | - | - | - |
* Rain since midnight (hover to see other rain measurements)
** Current wind speed in m/s (hover to see current wind gust speed)